Location: Newark
(40.7636°N, 73.9728°W)
Time: 00:12:43
(UTC+00:00)

ISS - Pass Details

Date: 27 September 2019
Orbit: 411 x 421 km, 51.6° (Epoch: 23 October)

Event Time Altitude Azimuth Distance (km) Brightness Sun altitude
Rises 23:05:31 0° 276° (W) 2,342 3.0 -4.7°
Reaches altitude 10° 23:08:03 10° 295° (WNW) 1,480 0.3 -5.2°
Maximum altitude 23:10:28 18° 342° (NNW) 1,073 -1.4 -5.7°
Drops below altitude 10° 23:12:53 10° 29° (NNE) 1,482 -1.2 -6.1°
Enters shadow 23:15:12 - 48° (NE) 2,262 -0.5 -6.6°
